TimeCDT,TemperatureF,Dew PointF,Humidity,Sea Level PressureIn,VisibilityMPH,Wind Direction,Wind SpeedMPH,Gust SpeedMPH,PrecipitationIn,Events,Conditions,WindDirDegrees,DateUTC
12:53 AM,41.0,37.9,89,30.12,10.0,WSW,4.6,-,N/A,,Clear,240,2013-10-24 05:53:00
1:53 AM,39.9,37.0,89,30.13,9.0,West,4.6,-,N/A,,Clear,260,2013-10-24 06:53:00
2:53 AM,41.0,37.9,89,30.13,9.0,WSW,5.8,-,N/A,,Clear,250,2013-10-24 07:53:00
3:53 AM,39.9,37.0,89,30.16,10.0,NE,5.8,-,N/A,,Clear,50,2013-10-24 08:53:00
4:53 AM,39.0,36.0,89,30.18,10.0,ENE,3.5,-,N/A,,Clear,60,2013-10-24 09:53:00
5:53 AM,39.0,36.0,89,30.22,10.0,ENE,5.8,-,N/A,,Clear,60,2013-10-24 10:53:00
6:53 AM,37.9,36.0,93,30.27,8.0,NE,3.5,-,N/A,,Clear,40,2013-10-24 11:53:00
7:53 AM,35.1,34.0,96,30.31,10.0,NE,6.9,-,N/A,,Clear,40,2013-10-24 12:53:00
8:53 AM,42.1,37.0,82,30.34,10.0,NE,5.8,-,N/A,,Clear,40,2013-10-24 13:53:00
9:53 AM,46.9,36.0,66,30.35,10.0,ENE,10.4,-,N/A,,Clear,60,2013-10-24 14:53:00
10:53 AM,50.0,33.1,52,30.36,10.0,NE,17.3,26.5,N/A,,Clear,50,2013-10-24 15:53:00
11:53 AM,51.1,33.1,50,30.37,10.0,ENE,15.0,24.2,N/A,,Clear,70,2013-10-24 16:53:00
12:53 PM,54.0,33.1,45,30.36,10.0,East,12.7,-,N/A,,Clear,80,2013-10-24 17:53:00
1:53 PM,55.0,33.1,43,30.34,10.0,ENE,10.4,-,N/A,,Clear,70,2013-10-24 18:53:00
2:53 PM,57.0,34.0,42,30.32,10.0,ENE,11.5,-,N/A,,Clear,70,2013-10-24 19:53:00
3:53 PM,57.0,34.0,42,30.30,10.0,East,12.7,16.1,N/A,,Clear,90,2013-10-24 20:53:00
4:53 PM,55.9,34.0,44,30.30,10.0,East,8.1,16.1,N/A,,Clear,80,2013-10-24 21:53:00
5:53 PM,55.0,35.1,47,30.30,10.0,East,10.4,-,N/A,,Clear,90,2013-10-24 22:53:00
6:53 PM,50.0,35.1,57,30.32,10.0,East,4.6,-,N/A,,Clear,90,2013-10-24 23:53:00
7:53 PM,46.0,34.0,63,30.35,10.0,East,4.6,-,N/A,,Clear,100,2013-10-25 00:53:00
8:53 PM,44.1,33.1,65,30.36,10.0,East,5.8,-,N/A,,Clear,90,2013-10-25 01:53:00
9:53 PM,37.9,32.0,79,30.40,10.0,Calm,Calm,-,N/A,,Clear,0,2013-10-25 02:53:00
10:53 PM,37.0,32.0,82,30.40,10.0,Calm,Calm,-,N/A,,Clear,0,2013-10-25 03:53:00
11:53 PM,34.0,30.9,89,30.40,10.0,Calm,Calm,-,N/A,,Clear,0,2013-10-25 04:53:00